Location: Arborea
(39.7744°N, 8.5819°E)
Time: 17:50:59
(UTC+00:00)

Okean-O - Pass Details

Date: 01 June 2022
Orbit: 638 x 640 km, 98.1° (Epoch: 27 June)

Event Time Altitude Azimuth Distance (km) Brightness Sun altitude
Rises 19:24:06 0° 179° (S) 2,928 5.7 -6.7°
Reaches altitude 10° 19:26:21 10° 185° (S) 2,023 4.9 -7.0°
Maximum altitude 19:30:38 49° 260° (W) 823 3.5 -7.7°
Drops below altitude 10° 19:34:56 10° 336° (NNW) 2,037 6.3 -8.3°
Sets 19:37:13 0° 342° (NNW) 2,950 7.1 -8.7°
